Aufgelaufene Messwerte:
Wetterdaten: aktuell Freitag, 03.02.2023 11:20
Datum Zeit Temp. Feuchte Luftdruck Regen Wind WRichtung WRichtung Sonnenschein Verdunstung UV-Index Solar Taupunkt Windchill Windben Empfang
03.02.2023 11:20 7,8 C 83 % 1010,0 hPa 0,0 mm 17,8 km/h (3 Bft) W-NW 300 5 min 0,000 mm 0,0 UV-I 178 W/m 5,1 C 4,8 C 37,0 km/h (5 Bft) 98,37 %
03.02.2023 11:15 7,7 C 83 % 1010,0 hPa 0,0 mm 18,0 km/h (3 Bft) W 267 5 min 0,000 mm 0,0 UV-I 168 W/m 5,0 C 4,7 C 45,1 km/h (6 Bft) 98,17 %
03.02.2023 11:10 7,6 C 83 % 1010,1 hPa 0,0 mm 16,1 km/h (3 Bft) W-SW 241 0 min 0,000 mm 0,0 UV-I 90 W/m 4,9 C 4,8 C 38,6 km/h (5 Bft) 96,83 %
03.02.2023 11:05 7,6 C 83 % 1010,0 hPa 0,0 mm 18,8 km/h (3 Bft) NW 325 0 min 0,000 mm 0,0 UV-I 65 W/m 4,9 C 4,5 C 37,0 km/h (5 Bft) 94,74 %
03.02.2023 11:00 7,6 C 83 % 1009,9 hPa 0,0 mm 18,6 km/h (3 Bft) N-NW 327 0 min 0,051 mm 0,0 UV-I 58 W/m 4,9 C 4,5 C 37,0 km/h (5 Bft) 96,69 %
03.02.2023 10:55 7,6 C 84 % 1009,9 hPa 0,0 mm 16,4 km/h (3 Bft) NW 312 0 min 0,000 mm 0,0 UV-I 44 W/m 5,1 C 4,8 C 38,6 km/h (5 Bft) 100,00 %
03.02.2023 10:50 7,6 C 84 % 1009,9 hPa 0,0 mm 17,7 km/h (3 Bft) NW 326 0 min 0,000 mm 0,0 UV-I 64 W/m 5,1 C 4,6 C 38,6 km/h (5 Bft) 99,18 %
03.02.2023 10:45 7,4 C 84 % 1009,7 hPa 0,0 mm 22,4 km/h (4 Bft) W-NW 302 0 min 0,000 mm 0,0 UV-I 83 W/m 4,9 C 3,8 C 43,5 km/h (6 Bft) 98,20 %
03.02.2023 10:40 7,3 C 85 % 1009,9 hPa 0,0 mm 22,4 km/h (4 Bft) NW 323 0 min 0,000 mm 0,0 UV-I 54 W/m 4,9 C 3,7 C 43,5 km/h (6 Bft) 100,00 %
03.02.2023 10:35 7,3 C 85 % 1009,8 hPa 0,0 mm 19,9 km/h (4 Bft) N 355 0 min 0,000 mm 0,0 UV-I 27 W/m 4,9 C 4,0 C 33,8 km/h (5 Bft) 98,15 %
03.02.2023 10:30 7,2 C 87 % 1009,8 hPa 0,0 mm 24,1 km/h (4 Bft) W 271 0 min 0,000 mm 0,0 UV-I 17 W/m 5,2 C 3,4 C 40,2 km/h (6 Bft) 99,18 %
03.02.2023 10:25 7,2 C 88 % 1009,6 hPa 0,0 mm 24,3 km/h (4 Bft) NW 315 0 min 0,000 mm 0,0 UV-I 22 W/m 5,3 C 3,4 C 46,7 km/h (6 Bft) 99,19 %
03.02.2023 10:20 7,2 C 89 % 1009,4 hPa 0,0 mm 25,2 km/h (4 Bft) N 350 0 min 0,001 mm 0,0 UV-I 25 W/m 5,5 C 3,3 C 43,5 km/h (6 Bft) 98,52 %
03.02.2023 10:10 7,2 C 91 % 1009,3 hPa 0,0 mm 22,5 km/h (4 Bft) W-NW 292 0 min 0,000 mm 0,0 UV-I 27 W/m 5,8 C 3,6 C 46,7 km/h (6 Bft) 100,00 %
03.02.2023 10:05 7,2 C 91 % 1009,0 hPa 0,0 mm 17,7 km/h (3 Bft) NW 315 0 min 0,000 mm 0,0 UV-I 32 W/m 5,8 C 4,1 C 40,2 km/h (6 Bft) 100,00 %
03.02.2023 10:00 7,2 C 91 % 1008,7 hPa 0,0 mm 17,7 km/h (3 Bft) W-NW 292 0 min 0,025 mm 0,0 UV-I 40 W/m 5,8 C 4,1 C 40,2 km/h (6 Bft) 98,25 %
03.02.2023 09:55 7,1 C 91 % 1008,8 hPa 0,0 mm 17,7 km/h (3 Bft) W-NW 292 0 min 0,000 mm 0,0 UV-I 42 W/m 5,7 C 4,0 C 45,1 km/h (6 Bft) 96,49 %
03.02.2023 09:50 7,1 C 91 % 1008,5 hPa 0,0 mm 16,1 km/h (3 Bft) W 270 0 min 0,000 mm 0,0 UV-I 44 W/m 5,7 C 4,2 C 41,8 km/h (6 Bft) 96,49 %
03.02.2023 09:45 7,1 C 92 % 1008,6 hPa 0,0 mm 14,5 km/h (3 Bft) W-NW 292 0 min 0,000 mm 0,0 UV-I 42 W/m 5,9 C 4,4 C 35,4 km/h (5 Bft) 97,37 %
03.02.2023 09:40 6,9 C 92 % 1008,8 hPa 0,0 mm 20,9 km/h (4 Bft) W-NW 292 0 min 0,000 mm 0,0 UV-I 37 W/m 5,7 C 3,4 C 38,6 km/h (5 Bft) 95,61 %
03.02.2023 09:35 6,9 C 92 % 1008,8 hPa 0,0 mm 16,1 km/h (3 Bft) W-NW 292 0 min 0,000 mm 0,0 UV-I 34 W/m 5,7 C 3,9 C 37,0 km/h (5 Bft) 100,00 %
03.02.2023 09:30 6,9 C 92 % 1008,7 hPa 0,0 mm 12,9 km/h (3 Bft) W 270 0 min 0,000 mm 0,0 UV-I 35 W/m 5,7 C 4,4 C 29,0 km/h (5 Bft) 99,12 %
03.02.2023 09:25 6,9 C 92 % 1008,9 hPa 0,0 mm 12,4 km/h (3 Bft) W-NW 299 0 min 0,000 mm 0,0 UV-I 25 W/m 5,7 C 4,5 C 32,2 km/h (5 Bft) 98,18 %
03.02.2023 09:20 6,9 C 92 % 1008,9 hPa 0,0 mm 15,9 km/h (3 Bft) W 259 0 min 0,000 mm 0,0 UV-I 24 W/m 5,7 C 4,0 C 29,0 km/h (5 Bft) 99,17 %
03.02.2023 09:15 7,0 C 92 % 1008,7 hPa 0,0 mm 18,2 km/h (3 Bft) W-NW 288 0 min 0,000 mm 0,0 UV-I 23 W/m 5,8 C 3,8 C 32,2 km/h (5 Bft) 98,37 %
03.02.2023 09:10 7,2 C 92 % 1008,7 hPa 0,0 mm 16,4 km/h (3 Bft) NW 309 0 min 0,000 mm 0,0 UV-I 25 W/m 6,0 C 4,3 C 37,0 km/h (5 Bft) 95,45 %
03.02.2023 09:05 7,3 C 93 % 1008,8 hPa 0,2 mm 23,4 km/h (4 Bft) W 262 0 min 0,000 mm 0,0 UV-I 15 W/m 6,2 C 3,6 C 41,8 km/h (6 Bft) 97,54 %
03.02.2023 09:00 7,6 C 93 % 1008,8 hPa 0,0 mm 20,1 km/h (4 Bft) W 275 0 min 0,025 mm 0,0 UV-I 10 W/m 6,5 C 4,3 C 43,5 km/h (6 Bft) 97,27 %
03.02.2023 08:55 7,6 C 93 % 1008,6 hPa 0,2 mm 19,4 km/h (3 Bft) W-NW 302 0 min 0,000 mm 0,0 UV-I 9 W/m 6,5 C 4,4 C 43,5 km/h (6 Bft) 99,19 %
03.02.2023 08:50 7,6 C 93 % 1008,3 hPa 0,2 mm 19,8 km/h (3 Bft) W 277 0 min 0,000 mm 0,0 UV-I 6 W/m 6,5 C 4,4 C 48,3 km/h (6 Bft) 95,50 %
03.02.2023 08:45 7,6 C 93 % 1008,2 hPa 0,0 mm 18,7 km/h (3 Bft) W 275 0 min 0,000 mm 0,0 UV-I 6 W/m 6,5 C 4,5 C 37,0 km/h (5 Bft) 99,19 %
03.02.2023 08:40 7,6 C 93 % 1008,2 hPa 0,0 mm 18,2 km/h (3 Bft) W-NW 302 0 min 0,000 mm 0,0 UV-I 7 W/m 6,5 C 4,5 C 37,0 km/h (5 Bft) 100,00 %
03.02.2023 08:35 7,6 C 93 % 1008,2 hPa 0,0 mm 19,3 km/h (3 Bft) S-SW 213 0 min 0,000 mm 0,0 UV-I 6 W/m 6,5 C 4,4 C 40,2 km/h (6 Bft) 100,00 %
03.02.2023 08:30 7,5 C 93 % 1008,3 hPa 0,0 mm 21,1 km/h (4 Bft) S-SW 211 0 min 0,000 mm 0,0 UV-I 5 W/m 6,4 C 4,1 C 38,6 km/h (5 Bft) 99,09 %
03.02.2023 08:25 7,5 C 93 % 1008,2 hPa 0,0 mm 20,6 km/h (4 Bft) W 271 0 min 0,000 mm 0,0 UV-I 1 W/m 6,4 C 4,2 C 38,6 km/h (5 Bft) 99,19 %
03.02.2023 08:20 7,4 C 93 % 1007,9 hPa 0,0 mm 21,0 km/h (4 Bft) W-NW 302 0 min 0,000 mm 0,0 UV-I 0 W/m 6,3 C 4,0 C 35,4 km/h (5 Bft) 99,17 %
03.02.2023 08:15 7,4 C 93 % 1008,2 hPa 0,0 mm 17,8 km/h (3 Bft) NW 309 0 min 0,000 mm 0,0 UV-I 0 W/m 6,3 C 4,3 C 45,1 km/h (6 Bft) 100,00 %
03.02.2023 08:10 7,4 C 93 % 1008,2 hPa 0,2 mm 17,8 km/h (3 Bft) W-SW 247 0 min 0,000 mm 0,0 UV-I 0 W/m 6,3 C 4,3 C 38,6 km/h (5 Bft) 98,20 %
03.02.2023 08:05 7,3 C 93 % 1008,2 hPa 0,0 mm 17,9 km/h (3 Bft) W 278 0 min 0,000 mm 0,0 UV-I 0 W/m 6,2 C 4,2 C 37,0 km/h (5 Bft) 95,87 %
03.02.2023 08:00 7,3 C 93 % 1008,3 hPa 0,0 mm 16,4 km/h (3 Bft) W 277 0 min 0,000 mm 0,0 UV-I 0 W/m 6,2 C 4,4 C 33,8 km/h (5 Bft) 97,58 %
03.02.2023 07:55 7,3 C 93 % 1008,3 hPa 0,0 mm 18,0 km/h (3 Bft) W 263 0 min 0,000 mm 0,0 UV-I 0 W/m 6,2 C 4,2 C 38,6 km/h (5 Bft) 97,32 %
03.02.2023 07:50 7,3 C 93 % 1008,2 hPa 0,0 mm 15,5 km/h (3 Bft) W 268 0 min 0,000 mm 0,0 UV-I 0 W/m 6,2 C 4,5 C 35,4 km/h (5 Bft) 99,11 %
03.02.2023 07:45 7,2 C 93 % 1008,3 hPa 0,0 mm 16,2 km/h (3 Bft) N-NW 327 0 min 0,000 mm 0,0 UV-I 0 W/m 6,1 C 4,3 C 32,2 km/h (5 Bft) 100,00 %
03.02.2023 07:40 7,3 C 93 % 1008,5 hPa 0,0 mm 14,1 km/h (3 Bft) SW 227 0 min 0,000 mm 0,0 UV-I 0 W/m 6,2 C 4,7 C 30,6 km/h (5 Bft) 100,00 %
03.02.2023 07:35 7,2 C 93 % 1008,5 hPa 0,2 mm 15,6 km/h (3 Bft) W-SW 252 0 min 0,000 mm 0,0 UV-I 0 W/m 6,1 C 4,4 C 29,0 km/h (5 Bft) 99,19 %
03.02.2023 07:30 7,2 C 93 % 1008,6 hPa 0,0 mm 9,5 km/h (2 Bft) W-SW 240 0 min 0,000 mm 0,0 UV-I 0 W/m 6,1 C 5,4 C 27,4 km/h (4 Bft) 99,11 %
03.02.2023 07:25 7,2 C 93 % 1008,7 hPa 0,0 mm 15,0 km/h (3 Bft) W 265 0 min 0,000 mm 0,0 UV-I 0 W/m 6,1 C 4,5 C 37,0 km/h (5 Bft) 99,18 %
03.02.2023 07:20 7,2 C 93 % 1008,9 hPa 0,0 mm 15,2 km/h (3 Bft) W-SW 240 0 min 0,000 mm 0,0 UV-I 0 W/m 6,1 C 4,4 C 30,6 km/h (5 Bft) 99,10 %
03.02.2023 07:15 7,2 C 93 % 1009,0 hPa 0,0 mm 18,0 km/h (3 Bft) W 263 0 min 0,000 mm 0,0 UV-I 0 W/m 6,1 C 4,1 C 30,6 km/h (5 Bft) 100,00 %
03.02.2023 07:10 7,2 C 93 % 1009,2 hPa 0,2 mm 15,2 km/h (3 Bft) W-SW 250 0 min 0,000 mm 0,0 UV-I 0 W/m 6,1 C 4,4 C 29,0 km/h (5 Bft) 97,27 %
03.02.2023 07:05 7,2 C 93 % 1009,3 hPa 0,0 mm 16,0 km/h (3 Bft) W 266 0 min 0,000 mm 0,0 UV-I 0 W/m 6,1 C 4,3 C 32,2 km/h (5 Bft) 97,50 %
03.02.2023 07:00 7,2 C 93 % 1009,3 hPa 0,2 mm 15,6 km/h (3 Bft) W-SW 246 0 min 0,000 mm 0,0 UV-I 0 W/m 6,1 C 4,4 C 41,8 km/h (6 Bft) 96,69 %
03.02.2023 06:55 7,2 C 93 % 1009,4 hPa 0,0 mm 14,8 km/h (3 Bft) W 279 0 min 0,000 mm 0,0 UV-I 0 W/m 6,1 C 4,5 C 35,4 km/h (5 Bft) 94,55 %
03.02.2023 06:50 7,2 C 93 % 1009,5 hPa 0,0 mm 18,0 km/h (3 Bft) SW 233 0 min 0,000 mm 0,0 UV-I 0 W/m 6,1 C 4,1 C 40,2 km/h (6 Bft) 100,00 %
03.02.2023 06:45 7,2 C 93 % 1009,7 hPa 0,0 mm 15,6 km/h (3 Bft) NW 316 0 min 0,000 mm 0,0 UV-I 0 W/m 6,1 C 4,4 C 32,2 km/h (5 Bft) 99,19 %
03.02.2023 06:40 7,1 C 93 % 1009,7 hPa 0,0 mm 13,5 km/h (3 Bft) W-SW 254 0 min 0,000 mm 0,0 UV-I 0 W/m 6,0 C 4,6 C 25,7 km/h (4 Bft) 98,18 %
03.02.2023 06:35 7,2 C 93 % 1009,8 hPa 0,0 mm 16,7 km/h (3 Bft) W 276 0 min 0,000 mm 0,0 UV-I 0 W/m 6,1 C 4,2 C 33,8 km/h (5 Bft) 99,18 %
03.02.2023 06:30 7,2 C 93 % 1009,9 hPa 0,0 mm 12,3 km/h (3 Bft) S-SW 195 0 min 0,000 mm 0,0 UV-I 0 W/m 6,1 C 4,9 C 25,7 km/h (4 Bft) 99,12 %
03.02.2023 06:25 7,1 C 93 % 1009,8 hPa 0,2 mm 13,5 km/h (3 Bft) W 268 0 min 0,000 mm 0,0 UV-I 0 W/m 6,0 C 4,6 C 33,8 km/h (5 Bft) 99,18 %
03.02.2023 06:20 7,1 C 93 % 1010,2 hPa 0,0 mm 11,6 km/h (2 Bft) W-SW 256 0 min 0,000 mm 0,0 UV-I 0 W/m 6,0 C 4,9 C 32,2 km/h (5 Bft) 99,17 %
03.02.2023 06:15 7,1 C 93 % 1010,1 hPa 0,0 mm 11,9 km/h (2 Bft) W-SW 251 0 min 0,000 mm 0,0 UV-I 0 W/m 6,0 C 4,8 C 24,1 km/h (4 Bft) 98,20 %
03.02.2023 06:10 7,1 C 93 % 1010,2 hPa 0,0 mm 12,4 km/h (3 Bft) W-SW 254 0 min 0,000 mm 0,0 UV-I 0 W/m 6,0 C 4,7 C 24,1 km/h (4 Bft) 84,82 %
03.02.2023 06:05 7,1 C 93 % 1010,2 hPa 0,0 mm 14,4 km/h (3 Bft) W 275 0 min 0,000 mm 0,0 UV-I 0 W/m 6,0 C 4,4 C 27,4 km/h (4 Bft) 94,21 %
03.02.2023 06:00 7,1 C 93 % 1010,3 hPa 0,0 mm 13,6 km/h (3 Bft) W 280 0 min 0,000 mm 0,0 UV-I 0 W/m 6,0 C 4,5 C 24,1 km/h (4 Bft) 97,54 %
03.02.2023 05:55 7,1 C 93 % 1010,3 hPa 0,0 mm 14,0 km/h (3 Bft) W-SW 240 0 min 0,000 mm 0,0 UV-I 0 W/m 6,0 C 4,5 C 25,7 km/h (4 Bft) 98,20 %
03.02.2023 05:50 7,1 C 93 % 1010,4 hPa 0,0 mm 15,0 km/h (3 Bft) W 275 0 min 0,000 mm 0,0 UV-I 0 W/m 6,0 C 4,3 C 25,7 km/h (4 Bft) 99,12 %
03.02.2023 05:45 7,0 C 93 % 1010,5 hPa 0,2 mm 15,1 km/h (3 Bft) N-NW 329 0 min 0,000 mm 0,0 UV-I 0 W/m 5,9 C 4,2 C 30,6 km/h (5 Bft) 99,17 %
03.02.2023 05:40 6,9 C 93 % 1010,4 hPa 0,0 mm 12,4 km/h (3 Bft) W 273 0 min 0,000 mm 0,0 UV-I 0 W/m 5,8 C 4,5 C 25,7 km/h (4 Bft) 99,15 %
03.02.2023 05:35 7,0 C 93 % 1010,5 hPa 0,0 mm 12,7 km/h (3 Bft) W-NW 287 0 min 0,000 mm 0,0 UV-I 0 W/m 5,9 C 4,6 C 30,6 km/h (5 Bft) 99,21 %
03.02.2023 05:30 7,0 C 93 % 1010,6 hPa 0,0 mm 16,6 km/h (3 Bft) W-SW 246 0 min 0,000 mm 0,0 UV-I 0 W/m 5,9 C 4,0 C 33,8 km/h (5 Bft) 99,12 %
03.02.2023 05:25 6,9 C 93 % 1010,9 hPa 0,0 mm 14,5 km/h (3 Bft) W-SW 254 0 min 0,000 mm 0,0 UV-I 0 W/m 5,8 C 4,2 C 32,2 km/h (5 Bft) 100,00 %
03.02.2023 05:20 6,9 C 93 % 1011,0 hPa 0,0 mm 13,8 km/h (3 Bft) W-SW 238 0 min 0,000 mm 0,0 UV-I 0 W/m 5,8 C 4,3 C 37,0 km/h (5 Bft) 98,35 %
03.02.2023 05:15 6,9 C 93 % 1011,0 hPa 0,0 mm 12,7 km/h (3 Bft) W 280 0 min 0,000 mm 0,0 UV-I 0 W/m 5,8 C 4,4 C 45,1 km/h (6 Bft) 100,00 %
03.02.2023 05:10 6,9 C 93 % 1010,9 hPa 0,0 mm 11,7 km/h (2 Bft) W-NW 286 0 min 0,000 mm 0,0 UV-I 0 W/m 5,8 C 4,6 C 35,4 km/h (5 Bft) 100,00 %
03.02.2023 05:05 6,9 C 93 % 1011,1 hPa 0,0 mm 14,7 km/h (3 Bft) W-SW 246 0 min 0,000 mm 0,0 UV-I 0 W/m 5,8 C 4,1 C 29,0 km/h (5 Bft) 97,27 %
03.02.2023 05:00 6,8 C 93 % 1011,0 hPa 0,0 mm 9,7 km/h (2 Bft) W 268 0 min 0,000 mm 0,0 UV-I 0 W/m 5,7 C 4,9 C 25,7 km/h (4 Bft) 96,88 %
03.02.2023 04:55 6,9 C 93 % 1011,0 hPa 0,0 mm 12,3 km/h (3 Bft) W-SW 246 0 min 0,000 mm 0,0 UV-I 0 W/m 5,8 C 4,5 C 27,4 km/h (4 Bft) 96,30 %
03.02.2023 04:50 6,8 C 93 % 1011,0 hPa 0,0 mm 12,0 km/h (2 Bft) W-SW 250 0 min 0,000 mm 0,0 UV-I 0 W/m 5,7 C 4,4 C 27,4 km/h (4 Bft) 99,19 %
03.02.2023 04:45 6,8 C 93 % 1011,2 hPa 0,0 mm 9,9 km/h (2 Bft) NW 311 0 min 0,000 mm 0,0 UV-I 0 W/m 5,7 C 4,8 C 22,5 km/h (4 Bft) 100,00 %
03.02.2023 04:40 6,9 C 93 % 1011,3 hPa 0,0 mm 12,1 km/h (2 Bft) W 265 0 min 0,000 mm 0,0 UV-I 0 W/m 5,8 C 4,5 C 24,1 km/h (4 Bft) 100,00 %
03.02.2023 04:35 6,8 C 93 % 1011,4 hPa 0,0 mm 14,6 km/h (3 Bft) SW 216 0 min 0,000 mm 0,0 UV-I 0 W/m 5,7 C 4,0 C 27,4 km/h (4 Bft) 100,00 %
03.02.2023 04:30 6,8 C 93 % 1011,4 hPa 0,0 mm 10,7 km/h (2 Bft) W-SW 238 0 min 0,000 mm 0,0 UV-I 0 W/m 5,7 C 4,7 C 25,7 km/h (4 Bft) 99,08 %
03.02.2023 04:25 6,8 C 93 % 1011,4 hPa 0,0 mm 12,4 km/h (3 Bft) W-SW 250 0 min 0,000 mm 0,0 UV-I 0 W/m 5,7 C 4,4 C 25,7 km/h (4 Bft) 99,12 %
03.02.2023 04:20 6,8 C 93 % 1011,6 hPa 0,0 mm 13,5 km/h (3 Bft) W 269 0 min 0,000 mm 0,0 UV-I 0 W/m 5,7 C 4,2 C 27,4 km/h (4 Bft) 100,00 %
03.02.2023 04:15 6,8 C 93 % 1011,8 hPa 0,0 mm 12,1 km/h (2 Bft) W-SW 252 0 min 0,000 mm 0,0 UV-I 0 W/m 5,7 C 4,4 C 25,7 km/h (4 Bft) 100,00 %
03.02.2023 04:10 6,7 C 93 % 1011,7 hPa 0,0 mm 11,7 km/h (2 Bft) W 267 0 min 0,000 mm 0,0 UV-I 0 W/m 5,6 C 4,4 C 30,6 km/h (5 Bft) 100,00 %
03.02.2023 04:05 6,8 C 93 % 1011,9 hPa 0,0 mm 10,9 km/h (2 Bft) SW 232 0 min 0,000 mm 0,0 UV-I 0 W/m 5,7 C 4,6 C 25,7 km/h (4 Bft) 98,06 %
03.02.2023 04:00 6,7 C 93 % 1011,8 hPa 0,0 mm 12,4 km/h (3 Bft) W 267 0 min 0,000 mm 0,0 UV-I 0 W/m 5,6 C 4,2 C 25,7 km/h (4 Bft) 98,35 %
03.02.2023 03:55 6,7 C 93 % 1012,1 hPa 0,0 mm 11,6 km/h (2 Bft) W 261 0 min 0,000 mm 0,0 UV-I 0 W/m 5,6 C 4,4 C 25,7 km/h (4 Bft) 95,45 %
03.02.2023 03:50 6,6 C 93 % 1012,1 hPa 0,0 mm 11,3 km/h (2 Bft) W-SW 255 0 min 0,000 mm 0,0 UV-I 0 W/m 5,6 C 4,3 C 25,7 km/h (4 Bft) 97,50 %
03.02.2023 03:45 6,6 C 93 % 1012,1 hPa 0,0 mm 10,5 km/h (2 Bft) W 265 0 min 0,000 mm 0,0 UV-I 0 W/m 5,6 C 4,5 C 32,2 km/h (5 Bft) 100,00 %
03.02.2023 03:40 6,3 C 93 % 1012,1 hPa 0,0 mm 13,8 km/h (3 Bft) W-SW 249 0 min 0,000 mm 0,0 UV-I 0 W/m 5,3 C 3,5 C 29,0 km/h (5 Bft) 99,14 %
03.02.2023 03:35 6,1 C 93 % 1012,1 hPa 0,0 mm 12,2 km/h (2 Bft) W 276 0 min 0,000 mm 0,0 UV-I 0 W/m 5,1 C 3,6 C 22,5 km/h (4 Bft) 100,00 %
03.02.2023 03:30 5,7 C 93 % 1012,5 hPa 0,0 mm 8,0 km/h (2 Bft) W 277 0 min 0,000 mm 0,0 UV-I 0 W/m 4,7 C 4,0 C 17,7 km/h (3 Bft) 100,00 %
03.02.2023 03:25 5,4 C 93 % 1012,4 hPa 0,0 mm 10,5 km/h (2 Bft) W 261 0 min 0,000 mm 0,0 UV-I 0 W/m 4,4 C 3,0 C 22,5 km/h (4 Bft) 100,00 %
03.02.2023 03:20 5,1 C 92 % 1012,5 hPa 0,0 mm 6,3 km/h (2 Bft) W-SW 252 0 min 0,000 mm 0,0 UV-I 0 W/m 3,9 C 3,7 C 12,9 km/h (3 Bft) 100,00 %
03.02.2023 03:15 4,9 C 92 % 1012,6 hPa 0,2 mm 7,9 km/h (2 Bft) W-SW 257 0 min 0,000 mm 0,0 UV-I 0 W/m 3,7 C 3,0 C 17,7 km/h (3 Bft) 100,00 %
03.02.2023 03:10 4,7 C 92 % 1012,6 hPa 0,0 mm 5,5 km/h (1 Bft) W 265 0 min 0,000 mm 0,0 UV-I 0 W/m 3,5 C 3,6 C 12,9 km/h (3 Bft) 100,00 %
03.02.2023 03:05 4,6 C 92 % 1012,8 hPa 0,0 mm 3,4 km/h (1 Bft) W-SW 246 0 min 0,000 mm 0,0 UV-I 0 W/m 3,4 C 4,6 C 8,0 km/h (2 Bft) 98,20 %
03.02.2023 03:00 4,4 C 92 % 1012,9 hPa 0,0 mm 4,1 km/h (1 Bft) S-SW 210 0 min 0,000 mm 0,0 UV-I 0 W/m 3,2 C 4,4 C 9,7 km/h (2 Bft) 97,32 %
03.02.2023 02:55 4,4 C 92 % 1012,9 hPa 0,0 mm 4,5 km/h (1 Bft) SW 231 0 min 0,000 mm 0,0 UV-I 0 W/m 3,2 C 4,4 C 9,7 km/h (2 Bft) 96,75 %
03.02.2023 02:50 4,3 C 92 % 1013,1 hPa 0,0 mm 4,8 km/h (1 Bft) W-SW 238 0 min 0,000 mm 0,0 UV-I 0 W/m 3,1 C 3,4 C 14,5 km/h (3 Bft) 97,37 %
03.02.2023 02:45 4,2 C 92 % 1013,1 hPa 0,0 mm 4,8 km/h (1 Bft) S 178 0 min 0,000 mm 0,0 UV-I 0 W/m 3,0 C 3,3 C 9,7 km/h (2 Bft) 99,17 %
03.02.2023 02:40 4,2 C 92 % 1013,1 hPa 0,2 mm 6,0 km/h (2 Bft) W-SW 246 0 min 0,000 mm 0,0 UV-I 0 W/m 3,0 C 2,8 C 11,3 km/h (2 Bft) 99,17 %
03.02.2023 02:35 4,1 C 92 % 1013,2 hPa 0,0 mm 5,7 km/h (1 Bft) W-SW 239 0 min 0,000 mm 0,0 UV-I 0 W/m 2,9 C 2,8 C 16,1 km/h (3 Bft) 100,00 %
03.02.2023 02:30 4,1 C 92 % 1013,4 hPa 0,0 mm 6,5 km/h (2 Bft) SW 226 0 min 0,000 mm 0,0 UV-I 0 W/m 2,9 C 2,5 C 12,9 km/h (3 Bft) 100,00 %
03.02.2023 02:25 4,0 C 92 % 1013,8 hPa 0,0 mm 5,3 km/h (1 Bft) S 188 0 min 0,000 mm 0,0 UV-I 0 W/m 2,8 C 2,8 C 9,7 km/h (2 Bft) 100,00 %
03.02.2023 02:20 3,9 C 92 % 1013,7 hPa 0,2 mm 6,7 km/h (2 Bft) S 190 0 min 0,000 mm 0,0 UV-I 0 W/m 2,7 C 2,2 C 12,9 km/h (3 Bft) 99,18 %
03.02.2023 02:15 3,8 C 92 % 1014,0 hPa 0,0 mm 7,4 km/h (2 Bft) SW 229 0 min 0,000 mm 0,0 UV-I 0 W/m 2,6 C 1,9 C 16,1 km/h (3 Bft) 100,00 %
03.02.2023 02:10 3,8 C 92 % 1014,0 hPa 0,0 mm 10,9 km/h (2 Bft) SW 234 0 min 0,000 mm 0,0 UV-I 0 W/m 2,6 C 1,0 C 27,4 km/h (4 Bft) 100,00 %
03.02.2023 02:05 3,7 C 91 % 1014,1 hPa 0,0 mm 7,5 km/h (2 Bft) S 176 0 min 0,000 mm 0,0 UV-I 0 W/m 2,4 C 1,7 C 16,1 km/h (3 Bft) 98,18 %
03.02.2023 02:00 3,7 C 91 % 1014,2 hPa 0,0 mm 7,8 km/h (2 Bft) S-SW 200 0 min 0,000 mm 0,0 UV-I 0 W/m 2,4 C 1,7 C 14,5 km/h (3 Bft) 97,52 %
03.02.2023 01:55 3,7 C 92 % 1014,3 hPa 0,0 mm 9,7 km/h (2 Bft) S-SW 202 0 min 0,000 mm 0,0 UV-I 0 W/m 2,5 C 1,2 C 19,3 km/h (3 Bft) 97,54 %
03.02.2023 01:50 3,6 C 91 % 1014,3 hPa 0,0 mm 10,6 km/h (2 Bft) S 173 0 min 0,000 mm 0,0 UV-I 0 W/m 2,3 C 0,9 C 19,3 km/h (3 Bft) 97,30 %
03.02.2023 01:45 3,5 C 91 % 1014,5 hPa 0,2 mm 11,0 km/h (2 Bft) S-SO 168 0 min 0,000 mm 0,0 UV-I 0 W/m 2,2 C 0,6 C 20,9 km/h (4 Bft) 97,56 %
03.02.2023 01:40 3,4 C 91 % 1014,5 hPa 0,0 mm 9,9 km/h (2 Bft) S 190 0 min 0,000 mm 0,0 UV-I 0 W/m 2,1 C 0,8 C 19,3 km/h (3 Bft) 100,00 %
03.02.2023 01:35 3,4 C 91 % 1014,6 hPa 0,0 mm 9,2 km/h (2 Bft) S-SO 158 0 min 0,000 mm 0,0 UV-I 0 W/m 2,1 C 0,9 C 16,1 km/h (3 Bft) 99,18 %
03.02.2023 01:30 3,4 C 91 % 1014,8 hPa 0,2 mm 10,7 km/h (2 Bft) S 190 0 min 0,000 mm 0,0 UV-I 0 W/m 2,1 C 0,6 C 16,1 km/h (3 Bft) 100,00 %
03.02.2023 01:25 3,4 C 91 % 1015,0 hPa 0,0 mm 11,3 km/h (2 Bft) S 177 0 min 0,000 mm 0,0 UV-I 0 W/m 2,1 C 0,5 C 24,1 km/h (4 Bft) 99,11 %
03.02.2023 01:20 3,4 C 91 % 1015,1 hPa 0,2 mm 12,3 km/h (3 Bft) S 188 0 min 0,000 mm 0,0 UV-I 0 W/m 2,1 C 0,3 C 25,7 km/h (4 Bft) 100,00 %
03.02.2023 01:15 3,3 C 91 % 1015,2 hPa 0,0 mm 13,3 km/h (3 Bft) S-SW 199 0 min 0,000 mm 0,0 UV-I 0 W/m 2,0 C -0,1 C 22,5 km/h (4 Bft) 98,33 %
03.02.2023 01:10 3,3 C 91 % 1015,3 hPa 0,0 mm 12,3 km/h (3 Bft) S 179 0 min 0,000 mm 0,0 UV-I 0 W/m 2,0 C 0,1 C 24,1 km/h (4 Bft) 100,00 %
03.02.2023 01:05 3,3 C 91 % 1015,5 hPa 0,2 mm 11,5 km/h (2 Bft) S 186 0 min 0,000 mm 0,0 UV-I 0 W/m 2,0 C 0,3 C 19,3 km/h (3 Bft) 100,00 %
03.02.2023 01:00 3,3 C 91 % 1015,5 hPa 0,0 mm 8,3 km/h (2 Bft) S-SW 199 0 min 0,000 mm 0,0 UV-I 0 W/m 2,0 C 1,1 C 19,3 km/h (3 Bft) 97,56 %
03.02.2023 00:55 3,3 C 91 % 1015,7 hPa 0,0 mm 6,4 km/h (2 Bft) S 180 0 min 0,000 mm 0,0 UV-I 0 W/m 2,0 C 1,6 C 12,9 km/h (3 Bft) 98,18 %
03.02.2023 00:50 3,3 C 91 % 1015,7 hPa 0,2 mm 6,5 km/h (2 Bft) SW 219 0 min 0,000 mm 0,0 UV-I 0 W/m 2,0 C 1,6 C 14,5 km/h (3 Bft) 96,80 %
03.02.2023 00:45 3,3 C 91 % 1015,7 hPa 0,0 mm 11,2 km/h (2 Bft) S-SO 158 0 min 0,000 mm 0,0 UV-I 0 W/m 2,0 C 0,4 C 20,9 km/h (4 Bft) 97,30 %
03.02.2023 00:40 3,3 C 91 % 1015,9 hPa 0,2 mm 10,4 km/h (2 Bft) S-SO 165 0 min 0,000 mm 0,0 UV-I 0 W/m 2,0 C 0,5 C 19,3 km/h (3 Bft) 99,19 %
03.02.2023 00:35 3,4 C 91 % 1016,1 hPa 0,0 mm 10,3 km/h (2 Bft) S-SO 156 0 min 0,000 mm 0,0 UV-I 0 W/m 2,1 C 0,7 C 22,5 km/h (4 Bft) 97,35 %
03.02.2023 00:30 3,4 C 90 % 1016,4 hPa 0,0 mm 10,5 km/h (2 Bft) S-SW 210 0 min 0,000 mm 0,0 UV-I 0 W/m 1,9 C 0,6 C 22,5 km/h (4 Bft) 98,37 %
03.02.2023 00:25 3,4 C 90 % 1016,4 hPa 0,2 mm 15,3 km/h (3 Bft) S 175 0 min 0,000 mm 0,0 UV-I 0 W/m 1,9 C -0,3 C 24,1 km/h (4 Bft) 98,15 %
03.02.2023 00:20 3,4 C 90 % 1016,8 hPa 0,0 mm 10,7 km/h (2 Bft) S 178 0 min 0,000 mm 0,0 UV-I 0 W/m 1,9 C 0,6 C 22,5 km/h (4 Bft) 99,20 %
03.02.2023 00:15 3,5 C 90 % 1017,0 hPa 0,0 mm 9,7 km/h (2 Bft) S 172 0 min 0,000 mm 0,0 UV-I 0 W/m 2,0 C 0,9 C 19,3 km/h (3 Bft) 100,00 %
03.02.2023 00:10 3,5 C 90 % 1016,9 hPa 0,0 mm 11,5 km/h (2 Bft) S 188 0 min 0,000 mm 0,0 UV-I 0 W/m 2,0 C 0,5 C 22,5 km/h (4 Bft) 99,18 %
03.02.2023 00:05 3,5 C 90 % 1016,9 hPa 0,0 mm 8,0 km/h (2 Bft) S 178 0 min 0,000 mm 0,0 UV-I 0 W/m 2,0 C 1,4 C 17,7 km/h (3 Bft) 99,10 %
03.02.2023 00:00 3,6 C 90 % 1017,2 hPa 0,2 mm 9,7 km/h (2 Bft) S-SW 197 0 min 0,000 mm 0,0 UV-I 0 W/m 2,1 C 1,1 C 16,1 km/h (3 Bft) 98,31 %
02.02.2023 23:55 3,6 C 90 % 1017,3 hPa 0,2 mm 9,8 km/h (2 Bft) S 187 0 min 0,000 mm 0,0 UV-I 0 W/m 2,1 C 1,0 C 20,9 km/h (4 Bft) 97,25 %
02.02.2023 23:50 3,6 C 90 % 1017,5 hPa 0,2 mm 8,7 km/h (2 Bft) S-SW 192 0 min 0,000 mm 0,0 UV-I 0 W/m 2,1 C 1,3 C 16,1 km/h (3 Bft) 96,75 %
02.02.2023 23:45 3,6 C 90 % 1017,6 hPa 0,2 mm 7,5 km/h (2 Bft) S 177 0 min 0,000 mm 0,0 UV-I 0 W/m 2,1 C 1,6 C 19,3 km/h (3 Bft) 97,27 %
02.02.2023 23:40 3,5 C 90 % 1017,6 hPa 0,2 mm 6,4 km/h (2 Bft) SW 231 0 min 0,000 mm 0,0 UV-I 0 W/m 2,0 C 1,9 C 11,3 km/h (2 Bft) 95,97 %
02.02.2023 23:35 3,5 C 90 % 1017,7 hPa 0,2 mm 6,0 km/h (2 Bft) W-SW 238 0 min 0,000 mm 0,0 UV-I 0 W/m 2,0 C 2,0 C 14,5 km/h (3 Bft) 100,00 %
02.02.2023 23:30 3,4 C 90 % 1017,9 hPa 0,2 mm 6,7 km/h (2 Bft) S 186 0 min 0,000 mm 0,0 UV-I 0 W/m 1,9 C 1,6 C 12,9 km/h (3 Bft) 100,00 %
02.02.2023 23:25 3,4 C 90 % 1017,9 hPa 0,2 mm 7,5 km/h (2 Bft) S-SO 159 0 min 0,000 mm 0,0 UV-I 0 W/m 1,9 C 1,4 C 12,9 km/h (3 Bft) 99,17 %
02.02.2023 23:20 3,3 C 90 % 1018,0 hPa 0,0 mm 6,2 km/h (2 Bft) S-SW 199 0 min 0,000 mm 0,0 UV-I 0 W/m 1,8 C 1,7 C 12,9 km/h (3 Bft) 98,23 %
02.02.2023 23:15 3,2 C 90 % 1018,1 hPa 0,2 mm 4,2 km/h (1 Bft) S 190 0 min 0,000 mm 0,0 UV-I 0 W/m 1,7 C 3,2 C 9,7 km/h (2 Bft) 97,32 %
02.02.2023 23:10 3,1 C 90 % 1018,2 hPa 0,2 mm 3,2 km/h (1 Bft) SW 218 0 min 0,000 mm 0,0 UV-I 0 W/m 1,6 C 3,1 C 8,0 km/h (2 Bft) 100,00 %
02.02.2023 23:05 3,1 C 90 % 1018,2 hPa 0,0 mm 5,1 km/h (1 Bft) S-SW 212 0 min 0,000 mm 0,0 UV-I 0 W/m 1,6 C 1,9 C 12,9 km/h (3 Bft) 98,33 %
02.02.2023 23:00 2,9 C 90 % 1018,5 hPa 0,2 mm 3,5 km/h (1 Bft) SW 225 0 min 0,000 mm 0,0 UV-I 0 W/m 1,4 C 2,9 C 8,0 km/h (2 Bft) 99,10 %
02.02.2023 22:55 2,8 C 90 % 1018,5 hPa 0,0 mm 5,4 km/h (1 Bft) SW 232 0 min 0,000 mm 0,0 UV-I 0 W/m 1,3 C 1,4 C 12,9 km/h (3 Bft) 97,56 %
02.02.2023 22:50 2,8 C 90 % 1018,6 hPa 0,2 mm 3,5 km/h (1 Bft) SW 228 0 min 0,000 mm 0,0 UV-I 0 W/m 1,3 C 2,8 C 11,3 km/h (2 Bft) 96,33 %
02.02.2023 22:45 2,7 C 90 % 1018,6 hPa 0,0 mm 4,6 km/h (1 Bft) SW 232 0 min 0,000 mm 0,0 UV-I 0 W/m 1,2 C 1,7 C 14,5 km/h (3 Bft) 97,54 %
02.02.2023 22:40 2,6 C 89 % 1018,5 hPa 0,0 mm 3,4 km/h (1 Bft) S 188 0 min 0,000 mm 0,0 UV-I 0 W/m 1,0 C 2,6 C 9,7 km/h (2 Bft) 98,35 %
02.02.2023 22:35 2,4 C 89 % 1018,5 hPa 0,2 mm 3,0 km/h (1 Bft) S-SW 207 0 min 0,000 mm 0,0 UV-I 0 W/m 0,8 C 2,4 C 8,0 km/h (2 Bft) 99,11 %
02.02.2023 22:30 2,3 C 89 % 1018,3 hPa 0,0 mm 4,0 km/h (1 Bft) S 178 0 min 0,000 mm 0,0 UV-I 0 W/m 0,7 C 2,3 C 9,7 km/h (2 Bft) 99,18 %
02.02.2023 22:25 2,3 C 89 % 1018,4 hPa 0,0 mm 4,8 km/h (1 Bft) S-SW 211 0 min 0,000 mm 0,0 UV-I 0 W/m 0,7 C 1,1 C 9,7 km/h (2 Bft) 99,07 %
02.02.2023 22:20 2,2 C 89 % 1018,5 hPa 0,0 mm 4,2 km/h (1 Bft) S 182 0 min 0,000 mm 0,0 UV-I 0 W/m 0,6 C 2,2 C 8,0 km/h (2 Bft) 99,19 %
02.02.2023 22:15 2,2 C 89 % 1018,5 hPa 0,0 mm 5,1 km/h (1 Bft) S 186 0 min 0,000 mm 0,0 UV-I 0 W/m 0,6 C 0,9 C 9,7 km/h (2 Bft) 99,10 %
02.02.2023 22:10 2,1 C 89 % 1018,6 hPa 0,0 mm 4,4 km/h (1 Bft) S 183 0 min 0,000 mm 0,0 UV-I 0 W/m 0,5 C 2,1 C 6,4 km/h (2 Bft) 99,17 %
02.02.2023 22:05 2,0 C 89 % 1018,6 hPa 0,0 mm 1,6 km/h (1 Bft) S 184 0 min 0,000 mm 0,0 UV-I 0 W/m 0,4 C 2,0 C 6,4 km/h (2 Bft) 100,00 %
02.02.2023 22:00 1,9 C 89 % 1018,7 hPa 0,0 mm 1,0 km/h (0 Bft) S 184 0 min 0,000 mm 0,0 UV-I 0 W/m 0,3 C 1,9 C 3,2 km/h (1 Bft) 99,08 %
02.02.2023 21:55 1,8 C 88 % 1018,7 hPa 0,0 mm 0,0 km/h (0 Bft) S 184 0 min 0,000 mm 0,0 UV-I 0 W/m 0,0 C 1,8 C 1,6 km/h (1 Bft) 96,72 %
02.02.2023 21:50 1,7 C 88 % 1018,7 hPa 0,0 mm 0,3 km/h (0 Bft) S 184 0 min 0,000 mm 0,0 UV-I 0 W/m -0,1 C 1,7 C 4,8 km/h (1 Bft) 96,75 %
02.02.2023 21:45 1,7 C 88 % 1018,7 hPa 0,0 mm 0,8 km/h (0 Bft) S 184 0 min 0,000 mm 0,0 UV-I 0 W/m -0,1 C 1,7 C 4,8 km/h (1 Bft) 96,33 %
02.02.2023 21:40 1,6 C 87 % 1018,8 hPa 0,0 mm 1,5 km/h (1 Bft) S 190 0 min 0,000 mm 0,0 UV-I 0 W/m -0,3 C 1,6 C 4,8 km/h (1 Bft) 100,00 %
02.02.2023 21:35 1,6 C 87 % 1018,9 hPa 0,0 mm 0,9 km/h (0 Bft) S 190 0 min 0,000 mm 0,0 UV-I 0 W/m -0,3 C 1,6 C 6,4 km/h (2 Bft) 99,19 %
02.02.2023 21:30 1,5 C 87 % 1018,8 hPa 0,0 mm 1,8 km/h (1 Bft) S-SW 193 0 min 0,000 mm 0,0 UV-I 0 W/m -0,4 C 1,5 C 4,8 km/h (1 Bft) 99,08 %
02.02.2023 21:25 1,4 C 87 % 1019,0 hPa 0,0 mm 2,4 km/h (1 Bft) S-SW 192 0 min 0,000 mm 0,0 UV-I 0 W/m -0,5 C 1,4 C 4,8 km/h (1 Bft) 100,00 %
02.02.2023 21:20 1,4 C 87 % 1018,8 hPa 0,0 mm 0,0 km/h (0 Bft) S-SW 192 0 min 0,000 mm 0,0 UV-I 0 W/m -0,5 C 1,4 C 0,0 km/h (0 Bft) 99,12 %
02.02.2023 21:15 1,3 C 86 % 1019,0 hPa 0,0 mm 0,0 km/h (0 Bft) S-SW 192 0 min 0,000 mm 0,0 UV-I 0 W/m -0,8 C 1,3 C 0,0 km/h (0 Bft) 99,17 %
02.02.2023 21:10 1,3 C 86 % 1019,1 hPa 0,0 mm 0,0 km/h (0 Bft) S-SW 192 0 min 0,000 mm 0,0 UV-I 0 W/m -0,8 C 1,3 C 0,0 km/h (0 Bft) 100,00 %
02.02.2023 21:05 1,3 C 86 % 1019,1 hPa 0,0 mm 0,0 km/h (0 Bft) S-SW 192 0 min 0,000 mm 0,0 UV-I 0 W/m -0,8 C 1,3 C 0,0 km/h (0 Bft) 98,18 %
02.02.2023 21:00 1,2 C 86 % 1019,2 hPa 0,0 mm 0,1 km/h (0 Bft) S-SW 192 0 min 0,000 mm 0,0 UV-I 0 W/m -0,9 C 1,2 C 3,2 km/h (1 Bft) 97,56 %
02.02.2023 20:55 1,2 C 85 % 1019,2 hPa 0,0 mm 0,0 km/h (0 Bft) S-SW 192 0 min 0,000 mm 0,0 UV-I 0 W/m -1,0 C 1,2 C 1,6 km/h (1 Bft) 97,30 %
02.02.2023 20:50 1,1 C 85 % 1019,3 hPa 0,0 mm 1,1 km/h (1 Bft) S-SW 192 0 min 0,000 mm 0,0 UV-I 0 W/m -1,1 C 1,1 C 3,2 km/h (1 Bft) 95,97 %
02.02.2023 20:45 1,1 C 84 % 1019,4 hPa 0,0 mm 1,3 km/h (1 Bft) S-SW 192 0 min 0,000 mm 0,0 UV-I 0 W/m -1,3 C 1,1 C 3,2 km/h (1 Bft) 98,20 %
02.02.2023 20:40 1,1 C 84 % 1019,4 hPa 0,0 mm 0,1 km/h (0 Bft) S-SW 192 0 min 0,000 mm 0,0 UV-I 0 W/m -1,3 C 1,1 C 3,2 km/h (1 Bft) 100,00 %
02.02.2023 20:35 1,0 C 83 % 1019,6 hPa 0,0 mm 0,0 km/h (0 Bft) S-SW 192 0 min 0,000 mm 0,0 UV-I 0 W/m -1,6 C 1,0 C 0,0 km/h (0 Bft) 95,58 %
02.02.2023 20:30 1,0 C 83 % 1019,5 hPa 0,0 mm 0,0 km/h (0 Bft) S-SW 192 0 min 0,000 mm 0,0 UV-I 0 W/m -1,6 C 1,0 C 0,0 km/h (0 Bft) 100,00 %
02.02.2023 20:25 1,0 C 83 % 1019,7 hPa 0,0 mm 0,0 km/h (0 Bft) S-SW 192 0 min 0,000 mm 0,0 UV-I 0 W/m -1,6 C 1,0 C 0,0 km/h (0 Bft) 97,25 %
02.02.2023 20:20 1,0 C 82 % 1019,7 hPa 0,0 mm 0,0 km/h (0 Bft) W-NW 302 0 min 0,000 mm 0,0 UV-I 0 W/m -1,7 C 1,0 C 0,0 km/h (0 Bft) 97,66 %
02.02.2023 20:15 1,0 C 82 % 1019,8 hPa 0,0 mm 0,0 km/h (0 Bft) W-NW 302 0 min 0,000 mm 0,0 UV-I 0 W/m -1,7 C 1,0 C 0,0 km/h (0 Bft) 100,00 %
02.02.2023 20:10 1,0 C 82 % 1019,8 hPa 0,0 mm 0,0 km/h (0 Bft) W-NW 302 0 min 0,000 mm 0,0 UV-I 0 W/m -1,7 C 1,0 C 0,0 km/h (0 Bft) 99,07 %
02.02.2023 20:05 1,0 C 81 % 1019,9 hPa 0,0 mm 0,0 km/h (0 Bft) NW 322 0 min 0,000 mm 0,0 UV-I 0 W/m -1,9 C 1,0 C 0,0 km/h (0 Bft) 98,36 %
02.02.2023 20:00 1,1 C 81 % 1019,9 hPa 0,0 mm 0,0 km/h (0 Bft) N-NW 327 0 min 0,000 mm 0,0 UV-I 0 W/m -1,8 C 1,1 C 0,0 km/h (0 Bft) 80,00 %
02.02.2023 19:55 1,1 C 81 % 1019,9 hPa 0,0 mm 0,0 km/h (0 Bft) N-NW 327 0 min 0,000 mm 0,0 UV-I 0 W/m -1,8 C 1,1 C 0,0 km/h (0 Bft) 96,43 %
02.02.2023 19:50 1,1 C 81 % 1019,9 hPa 0,0 mm 0,0 km/h (0 Bft) N-NW 327 0 min 0,000 mm 0,0 UV-I 0 W/m -1,8 C 1,1 C 0,0 km/h (0 Bft) 97,56 %
02.02.2023 19:45 1,2 C 81 % 1019,9 hPa 0,0 mm 0,0 km/h (0 Bft) N-NW 327 0 min 0,000 mm 0,0 UV-I 0 W/m -1,7 C 1,2 C 0,0 km/h (0 Bft) 97,27 %
02.02.2023 19:40 1,2 C 81 % 1019,9 hPa 0,0 mm 0,0 km/h (0 Bft) N-NW 327 0 min 0,000 mm 0,0 UV-I 0 W/m -1,7 C 1,2 C 0,0 km/h (0 Bft) 97,48 %
02.02.2023 19:35 1,3 C 81 % 1019,9 hPa 0,0 mm 0,0 km/h (0 Bft) N-NW 327 0 min 0,000 mm 0,0 UV-I 0 W/m -1,6 C 1,3 C 0,0 km/h (0 Bft) 98,36 %
02.02.2023 19:30 1,3 C 81 % 1020,1 hPa 0,0 mm 0,0 km/h (0 Bft) N-NW 327 0 min 0,000 mm 0,0 UV-I 0 W/m -1,6 C 1,3 C 0,0 km/h (0 Bft) 99,16 %
02.02.2023 19:25 1,4 C 81 % 1020,0 hPa 0,0 mm 0,0 km/h (0 Bft) N-NW 327 0 min 0,000 mm 0,0 UV-I 0 W/m -1,5 C 1,4 C 0,0 km/h (0 Bft) 99,12 %
02.02.2023 19:20 1,5 C 81 % 1020,0 hPa 0,0 mm 0,0 km/h (0 Bft) N-NW 327 0 min 0,000 mm 0,0 UV-I 0 W/m -1,4 C 1,5 C 0,0 km/h (0 Bft) 98,23 %
02.02.2023 19:15 1,6 C 81 % 1020,0 hPa 0,0 mm 0,0 km/h (0 Bft) N-NW 327 0 min 0,000 mm 0,0 UV-I 0 W/m -1,3 C 1,6 C 0,0 km/h (0 Bft) 99,18 %
02.02.2023 19:10 1,7 C 80 % 1020,0 hPa 0,0 mm 0,0 km/h (0 Bft) N-NW 327 0 min 0,000 mm 0,0 UV-I 0 W/m -1,4 C 1,7 C 0,0 km/h (0 Bft) 99,18 %
02.02.2023 19:05 1,8 C 80 % 1020,1 hPa 0,0 mm 0,0 km/h (0 Bft) N-NW 327 0 min 0,000 mm 0,0 UV-I 0 W/m -1,3 C 1,8 C 0,0 km/h (0 Bft) 98,17 %
02.02.2023 19:00 1,9 C 80 % 1020,1 hPa 0,0 mm 0,0 km/h (0 Bft) N-NW 327 0 min 0,000 mm 0,0 UV-I 0 W/m -1,2 C 1,9 C 0,0 km/h (0 Bft) 95,90 %
02.02.2023 18:55 2,0 C 80 % 1020,1 hPa 0,0 mm 0,0 km/h (0 Bft) N-NW 327 0 min 0,000 mm 0,0 UV-I 0 W/m -1,1 C 2,0 C 0,0 km/h (0 Bft) 96,36 %
02.02.2023 18:50 2,1 C 80 % 1020,1 hPa 0,0 mm 0,0 km/h (0 Bft) N-NW 327 0 min 0,000 mm 0,0 UV-I 0 W/m -1,0 C 2,1 C 0,0 km/h (0 Bft) 98,35 %
02.02.2023 18:45 2,3 C 80 % 1020,1 hPa 0,0 mm 0,0 km/h (0 Bft) N-NW 327 0 min 0,000 mm 0,0 UV-I 0 W/m -0,8 C 2,3 C 0,0 km/h (0 Bft) 99,17 %
02.02.2023 18:40 2,4 C 80 % 1020,1 hPa 0,0 mm 0,0 km/h (0 Bft) N-NW 327 0 min 0,000 mm 0,0 UV-I 0 W/m -0,7 C 2,4 C 0,0 km/h (0 Bft) 100,00 %
02.02.2023 18:35 2,6 C 79 % 1020,2 hPa 0,0 mm 0,0 km/h (0 Bft) N-NW 327 0 min 0,000 mm 0,0 UV-I 0 W/m -0,7 C 2,6 C 0,0 km/h (0 Bft) 99,17 %
02.02.2023 18:30 2,7 C 79 % 1020,1 hPa 0,0 mm 0,0 km/h (0 Bft) N-NW 327 0 min 0,000 mm 0,0 UV-I 0 W/m -0,6 C 2,7 C 0,0 km/h (0 Bft) 99,12 %
02.02.2023 18:25 2,8 C 79 % 1020,3 hPa 0,0 mm 0,0 km/h (0 Bft) N-NW 327 0 min 0,000 mm 0,0 UV-I 0 W/m -0,5 C 2,8 C 0,0 km/h (0 Bft) 99,17 %
02.02.2023 18:20 2,9 C 79 % 1020,1 hPa 0,0 mm 0,0 km/h (0 Bft) N-NW 327 0 min 0,000 mm 0,0 UV-I 0 W/m -0,4 C 2,9 C 0,0 km/h (0 Bft) 100,00 %
02.02.2023 18:15 3,1 C 78 % 1020,2 hPa 0,0 mm 0,0 km/h (0 Bft) N-NW 327 0 min 0,000 mm 0,0 UV-I 0 W/m -0,4 C 3,1 C 0,0 km/h (0 Bft) 97,60 %
02.02.2023 18:10 3,3 C 78 % 1020,1 hPa 0,0 mm 0,0 km/h (0 Bft) N-NW 327 0 min 0,000 mm 0,0 UV-I 0 W/m -0,2 C 3,3 C 0,0 km/h (0 Bft) 99,08 %
02.02.2023 18:05 3,4 C 78 % 1020,2 hPa 0,0 mm 0,0 km/h (0 Bft) N-NW 327 0 min 0,000 mm 0,0 UV-I 0 W/m -0,1 C 3,4 C 0,0 km/h (0 Bft) 96,72 %
02.02.2023 18:00 3,6 C 78 % 1020,3 hPa 0,0 mm 0,0 km/h (0 Bft) N-NW 327 0 min 0,000 mm 0,0 UV-I 0 W/m 0,1 C 3,6 C 0,0 km/h (0 Bft) 96,69 %
02.02.2023 17:55 3,8 C 78 % 1020,1 hPa 0,0 mm 0,0 km/h (0 Bft) N-NW 327 0 min 0,000 mm 0,0 UV-I 0 W/m 0,3 C 3,8 C 0,0 km/h (0 Bft) 98,15 %
02.02.2023 17:50 3,9 C 77 % 1020,2 hPa 0,0 mm 0,0 km/h (0 Bft) N-NW 327 0 min 0,000 mm 0,0 UV-I 0 W/m 0,2 C 3,9 C 0,0 km/h (0 Bft) 99,19 %
02.02.2023 17:45 4,2 C 77 % 1020,2 hPa 0,0 mm 0,0 km/h (0 Bft) N-NW 327 0 min 0,000 mm 0,0 UV-I 0 W/m 0,5 C 4,2 C 0,0 km/h (0 Bft) 100,00 %
02.02.2023 17:40 4,3 C 77 % 1020,1 hPa 0,0 mm 0,0 km/h (0 Bft) N-NW 327 0 min 0,000 mm 0,0 UV-I 0 W/m 0,6 C 4,3 C 0,0 km/h (0 Bft) 99,09 %
02.02.2023 17:35 4,4 C 77 % 1020,0 hPa 0,0 mm 0,0 km/h (0 Bft) N-NW 327 0 min 0,000 mm 0,0 UV-I 0 W/m 0,7 C 4,4 C 0,0 km/h (0 Bft) 99,19 %
02.02.2023 17:30 4,6 C 76 % 1020,0 hPa 0,0 mm 0,0 km/h (0 Bft) N-NW 327 0 min 0,000 mm 0,0 UV-I 0 W/m 0,7 C 4,6 C 0,0 km/h (0 Bft) 100,00 %
02.02.2023 17:25 4,8 C 76 % 1019,9 hPa 0,0 mm 0,0 km/h (0 Bft) N-NW 327 0 min 0,000 mm 0,0 UV-I 0 W/m 0,9 C 4,8 C 0,0 km/h (0 Bft) 99,18 %
02.02.2023 17:20 4,9 C 76 % 1019,9 hPa 0,0 mm 0,0 km/h (0 Bft) N-NW 327 0 min 0,000 mm 0,0 UV-I 0 W/m 1,0 C 4,9 C 0,0 km/h (0 Bft) 99,11 %
02.02.2023 17:15 5,1 C 76 % 1019,9 hPa 0,0 mm 0,0 km/h (0 Bft) N-NW 327 0 min 0,000 mm 0,0 UV-I 0 W/m 1,2 C 5,1 C 0,0 km/h (0 Bft) 100,00 %
02.02.2023 17:10 5,3 C 75 % 1019,8 hPa 0,0 mm 0,0 km/h (0 Bft) N-NW 327 0 min 0,000 mm 0,0 UV-I 0 W/m 1,2 C 5,3 C 0,0 km/h (0 Bft) 98,26 %
02.02.2023 17:05 5,4 C 76 % 1019,5 hPa 0,0 mm 0,0 km/h (0 Bft) N-NW 327 0 min 0,000 mm 0,0 UV-I 5 W/m 1,5 C 5,4 C 0,0 km/h (0 Bft) 98,21 %
02.02.2023 17:00 5,6 C 75 % 1019,4 hPa 0,0 mm 0,0 km/h (0 Bft) N-NW 327 0 min 0,026 mm 0,0 UV-I 8 W/m 1,5 C 5,6 C 0,0 km/h (0 Bft) 97,58 %
02.02.2023 16:55 5,7 C 75 % 1019,4 hPa 0,0 mm 0,0 km/h (0 Bft) N-NW 327 0 min 0,000 mm 0,0 UV-I 12 W/m 1,6 C 5,7 C 0,0 km/h (0 Bft) 96,40 %
02.02.2023 16:50 5,8 C 75 % 1019,4 hPa 0,0 mm 0,0 km/h (0 Bft) N-NW 327 0 min 0,000 mm 0,0 UV-I 15 W/m 1,7 C 5,8 C 0,0 km/h (0 Bft) 99,19 %
02.02.2023 16:45 5,9 C 75 % 1019,3 hPa 0,0 mm 0,0 km/h (0 Bft) N-NW 327 5 min 0,000 mm 0,0 UV-I 18 W/m 1,8 C 5,9 C 0,0 km/h (0 Bft) 99,08 %
02.02.2023 16:40 6,1 C 75 % 1019,2 hPa 0,0 mm 0,1 km/h (0 Bft) N-NW 327 5 min 0,000 mm 0,0 UV-I 19 W/m 2,0 C 6,1 C 1,6 km/h (1 Bft) 100,00 %
02.02.2023 16:35 6,2 C 75 % 1019,1 hPa 0,0 mm 0,8 km/h (0 Bft) N-NW 327 10 min 0,000 mm 0,0 UV-I 21 W/m 2,1 C 6,2 C 4,8 km/h (1 Bft) 99,17 %
02.02.2023 16:25 6,3 C 75 % 1019,0 hPa 0,0 mm 0,1 km/h (0 Bft) N-NW 327 0 min 0,000 mm 0,0 UV-I 27 W/m 2,2 C 6,3 C 3,2 km/h (1 Bft) 100,00 %
02.02.2023 16:20 6,3 C 76 % 1019,1 hPa 0,0 mm 2,2 km/h (1 Bft) N-NW 327 0 min 0,000 mm 0,0 UV-I 33 W/m 2,4 C 6,3 C 6,4 km/h (2 Bft) 99,18 %
02.02.2023 16:15 6,4 C 76 % 1019,0 hPa 0,0 mm 2,7 km/h (1 Bft) N-NW 327 0 min 0,000 mm 0,0 UV-I 39 W/m 2,5 C 6,4 C 8,0 km/h (2 Bft) 100,00 %
02.02.2023 16:10 6,4 C 75 % 1019,0 hPa 0,0 mm 4,8 km/h (1 Bft) W-NW 298 0 min 0,000 mm 0,0 UV-I 44 W/m 2,3 C 5,7 C 8,0 km/h (2 Bft) 99,11 %
02.02.2023 16:05 6,5 C 75 % 1018,9 hPa 0,0 mm 5,5 km/h (1 Bft) N-NW 327 0 min 0,000 mm 0,0 UV-I 47 W/m 2,4 C 5,6 C 9,7 km/h (2 Bft) 96,77 %
02.02.2023 16:00 6,6 C 75 % 1018,8 hPa 0,0 mm 2,1 km/h (1 Bft) N-NO 22 0 min 0,051 mm 0,0 UV-I 53 W/m 2,5 C 6,6 C 6,4 km/h (2 Bft) 97,52 %
02.02.2023 15:55 6,6 C 75 % 1018,7 hPa 0,0 mm 4,6 km/h (1 Bft) N-NW 338 5 min 0,000 mm 0,0 UV-I 66 W/m 2,5 C 6,0 C 8,0 km/h (2 Bft) 97,25 %
02.02.2023 15:50 6,6 C 75 % 1018,7 hPa 0,0 mm 6,8 km/h (2 Bft) NW 317 5 min 0,000 mm 0,0 UV-I 72 W/m 2,5 C 5,3 C 14,5 km/h (3 Bft) 98,39 %
02.02.2023 15:45 6,6 C 75 % 1018,6 hPa 0,0 mm 6,4 km/h (2 Bft) NW 326 5 min 0,000 mm 0,0 UV-I 80 W/m 2,5 C 5,4 C 14,5 km/h (3 Bft) 100,00 %
02.02.2023 15:40 6,6 C 75 % 1018,5 hPa 0,0 mm 4,5 km/h (1 Bft) W-NW 293 5 min 0,000 mm 0,0 UV-I 84 W/m 2,5 C 6,6 C 9,7 km/h (2 Bft) 98,35 %
02.02.2023 15:35 6,6 C 75 % 1018,4 hPa 0,0 mm 7,5 km/h (2 Bft) NW 306 5 min 0,000 mm 0,0 UV-I 83 W/m 2,5 C 5,1 C 12,9 km/h (3 Bft) 100,00 %
02.02.2023 15:30 6,6 C 75 % 1018,4 hPa 0,0 mm 5,7 km/h (1 Bft) NW 322 5 min 0,000 mm 0,0 UV-I 84 W/m 2,5 C 5,7 C 12,9 km/h (3 Bft) 100,00 %
02.02.2023 15:25 6,6 C 75 % 1018,4 hPa 0,0 mm 5,1 km/h (1 Bft) NW 320 5 min 0,000 mm 0,0 UV-I 89 W/m 2,5 C 5,9 C 11,3 km/h (2 Bft) 98,39 %
02.02.2023 15:20 6,5 C 75 % 1018,5 hPa 0,0 mm 9,6 km/h (2 Bft) NW 309 0 min 0,000 mm 0,0 UV-I 85 W/m 2,4 C 4,5 C 16,1 km/h (3 Bft) 100,00 %
02.02.2023 15:15 6,5 C 74 % 1018,5 hPa 0,0 mm 6,9 km/h (2 Bft) NW 313 0 min 0,000 mm 0,0 UV-I 91 W/m 2,2 C 5,2 C 12,9 km/h (3 Bft) 100,00 %
02.02.2023 15:10 6,5 C 74 % 1018,4 hPa 0,0 mm 6,3 km/h (2 Bft) NW 308 0 min 0,000 mm 0,0 UV-I 88 W/m 2,2 C 5,4 C 12,9 km/h (3 Bft) 100,00 %
02.02.2023 15:05 6,5 C 74 % 1018,4 hPa 0,0 mm 6,5 km/h (2 Bft) NW 314 0 min 0,000 mm 0,0 UV-I 87 W/m 2,2 C 5,3 C 12,9 km/h (3 Bft) 96,46 %
02.02.2023 15:00 6,4 C 74 % 1018,3 hPa 0,0 mm 9,4 km/h (2 Bft) NW 309 0 min 0,101 mm 0,0 UV-I 92 W/m 2,1 C 4,5 C 16,1 km/h (3 Bft) 97,37 %
02.02.2023 14:55 6,5 C 74 % 1018,2 hPa 0,0 mm 8,9 km/h (2 Bft) W 267 0 min 0,000 mm 0,0 UV-I 90 W/m 2,2 C 4,7 C 16,1 km/h (3 Bft) 97,52 %
02.02.2023 14:50 6,4 C 74 % 1018,2 hPa 0,0 mm 10,4 km/h (2 Bft) NW 308 0 min 0,000 mm 0,0 UV-I 96 W/m 2,1 C 4,3 C 19,3 km/h (3 Bft) 98,35 %
02.02.2023 14:45 6,4 C 74 % 1018,1 hPa 0,0 mm 9,1 km/h (2 Bft) NW 313 5 min 0,000 mm 0,0 UV-I 142 W/m 2,1 C 4,5 C 16,1 km/h (3 Bft) 100,00 %
02.02.2023 14:40 6,3 C 74 % 1018,1 hPa 0,0 mm 8,9 km/h (2 Bft) W-NW 298 5 min 0,000 mm 0,0 UV-I 155 W/m 2,0 C 4,4 C 19,3 km/h (3 Bft) 100,00 %
02.02.2023 14:35 6,3 C 74 % 1018,1 hPa 0,0 mm 6,9 km/h (2 Bft) N-NW 348 5 min 0,000 mm 0,0 UV-I 191 W/m 2,0 C 5,0 C 14,5 km/h (3 Bft) 99,12 %
02.02.2023 14:30 6,3 C 74 % 1018,1 hPa 0,0 mm 8,5 km/h (2 Bft) N 5 5 min 0,000 mm 0,0 UV-I 201 W/m 2,0 C 4,5 C 14,5 km/h (3 Bft) 99,18 %
02.02.2023 14:25 6,2 C 74 % 1018,1 hPa 0,0 mm 12,6 km/h (3 Bft) N-NW 329 5 min 0,000 mm 0,0 UV-I 217 W/m 1,9 C 3,6 C 20,9 km/h (4 Bft) 99,10 %
02.02.2023 14:20 6,2 C 75 % 1018,0 hPa 0,0 mm 4,9 km/h (1 Bft) NW 309 5 min 0,000 mm 0,0 UV-I 235 W/m 2,1 C 5,5 C 12,9 km/h (3 Bft) 100,00 %
02.02.2023 14:15 6,1 C 75 % 1018,0 hPa 0,0 mm 11,6 km/h (2 Bft) NW 320 5 min 0,000 mm 0,0 UV-I 238 W/m 2,0 C 3,7 C 19,3 km/h (3 Bft) 99,10 %
02.02.2023 14:10 6,1 C 76 % 1018,0 hPa 0,0 mm 10,5 km/h (2 Bft) NW 304 5 min 0,000 mm 0,5 UV-I 241 W/m 2,2 C 3,9 C 17,7 km/h (3 Bft) 96,67 %
02.02.2023 14:05 6,1 C 76 % 1017,9 hPa 0,0 mm 8,6 km/h (2 Bft) N 5 5 min 0,000 mm 0,5 UV-I 242 W/m 2,2 C 4,3 C 16,1 km/h (3 Bft) 95,87 %
02.02.2023 14:00 6,0 C 77 % 1017,9 hPa 0,0 mm 7,7 km/h (2 Bft) N-NW 333 5 min 0,102 mm 0,5 UV-I 242 W/m 2,3 C 4,4 C 12,9 km/h (3 Bft) 98,17 %
02.02.2023 13:55 5,9 C 77 % 1017,8 hPa 0,0 mm 5,6 km/h (1 Bft) N-NO 13 5 min 0,000 mm 0,5 UV-I 254 W/m 2,2 C 4,9 C 12,9 km/h (3 Bft) 98,35 %
02.02.2023 13:50 5,9 C 77 % 1017,9 hPa 0,0 mm 7,3 km/h (2 Bft) NW 317 5 min 0,000 mm 0,5 UV-I 257 W/m 2,2 C 4,4 C 12,9 km/h (3 Bft) 98,33 %
02.02.2023 13:45 5,8 C 77 % 1017,9 hPa 0,0 mm 7,4 km/h (2 Bft) NW 312 5 min 0,000 mm 0,5 UV-I 265 W/m 2,1 C 4,2 C 16,1 km/h (3 Bft) 98,17 %
02.02.2023 13:40 5,8 C 76 % 1017,8 hPa 0,0 mm 8,6 km/h (2 Bft) N-NO 17 5 min 0,000 mm 0,4 UV-I 192 W/m 1,9 C 3,9 C 14,5 km/h (3 Bft) 99,16 %
02.02.2023 13:35 5,8 C 76 % 1017,8 hPa 0,0 mm 11,2 km/h (2 Bft) N 355 5 min 0,000 mm 0,5 UV-I 179 W/m 1,9 C 3,4 C 19,3 km/h (3 Bft) 100,00 %
02.02.2023 13:30 5,8 C 76 % 1017,8 hPa 0,0 mm 6,9 km/h (2 Bft) N-NW 345 5 min 0,000 mm 0,5 UV-I 248 W/m 1,9 C 4,4 C 12,9 km/h (3 Bft) 100,00 %
02.02.2023 13:25 5,8 C 76 % 1017,7 hPa 0,0 mm 9,9 km/h (2 Bft) NW 323 0 min 0,000 mm 0,5 UV-I 148 W/m 1,9 C 3,6 C 16,1 km/h (3 Bft) 100,00 %
02.02.2023 13:20 5,9 C 75 % 1017,6 hPa 0,0 mm 10,9 km/h (2 Bft) N 360 0 min 0,000 mm 0,3 UV-I 88 W/m 1,8 C 3,6 C 19,3 km/h (3 Bft) 99,10 %
02.02.2023 13:15 6,0 C 76 % 1017,7 hPa 0,0 mm 11,1 km/h (2 Bft) N-NW 341 0 min 0,000 mm 0,1 UV-I 74 W/m 2,1 C 3,6 C 19,3 km/h (3 Bft) 97,62 %
02.02.2023 13:10 6,1 C 76 % 1017,6 hPa 0,0 mm 8,7 km/h (2 Bft) N 355 0 min 0,000 mm 0,1 UV-I 70 W/m 2,2 C 4,3 C 12,9 km/h (3 Bft) 97,27 %
02.02.2023 13:05 6,2 C 76 % 1017,6 hPa 0,0 mm 12,3 km/h (3 Bft) N 9 0 min 0,000 mm 0,1 UV-I 78 W/m 2,3 C 3,7 C 20,9 km/h (4 Bft) 96,69 %
02.02.2023 13:00 6,3 C 76 % 1017,6 hPa 0,0 mm 10,0 km/h (2 Bft) N 360 5 min 0,101 mm 0,4 UV-I 183 W/m 2,4 C 4,2 C 20,9 km/h (4 Bft) 99,18 %
02.02.2023 12:55 6,2 C 76 % 1017,6 hPa 0,0 mm 11,2 km/h (2 Bft) NW 319 5 min 0,000 mm 0,5 UV-I 169 W/m 2,3 C 3,9 C 14,5 km/h (3 Bft) 99,09 %
02.02.2023 12:50 6,3 C 76 % 1017,6 hPa 0,0 mm 10,4 km/h (2 Bft) NW 309 0 min 0,000 mm 0,4 UV-I 160 W/m 2,4 C 4,1 C 17,7 km/h (3 Bft) 100,00 %
02.02.2023 12:45 6,3 C 77 % 1017,6 hPa 0,0 mm 12,1 km/h (2 Bft) NW 326 5 min 0,000 mm 0,4 UV-I 250 W/m 2,6 C 3,8 C 20,9 km/h (4 Bft) 100,00 %
02.02.2023 12:40 6,2 C 78 % 1017,5 hPa 0,0 mm 12,0 km/h (2 Bft) N-NW 333 5 min 0,000 mm 0,6 UV-I 360 W/m 2,7 C 3,7 C 20,9 km/h (4 Bft) 99,18 %
02.02.2023 12:35 6,1 C 78 % 1017,4 hPa 0,0 mm 12,7 km/h (3 Bft) N 355 5 min 0,000 mm 0,3 UV-I 184 W/m 2,6 C 3,5 C 22,5 km/h (4 Bft) 100,00 %
02.02.2023 12:30 6,1 C 78 % 1017,4 hPa 0,0 mm 8,8 km/h (2 Bft) N-NW 344 5 min 0,000 mm 0,6 UV-I 309 W/m 2,6 C 4,2 C 14,5 km/h (3 Bft) 100,00 %
02.02.2023 12:25 6,1 C 78 % 1017,4 hPa 0,0 mm 7,5 km/h (2 Bft) NW 321 0 min 0,000 mm 0,4 UV-I 104 W/m 2,6 C 4,6 C 16,1 km/h (3 Bft) 100,00 %
02.02.2023 12:20 6,1 C 78 % 1017,4 hPa 0,0 mm 14,8 km/h (3 Bft) N 360 0 min 0,000 mm 0,1 UV-I 102 W/m 2,6 C 3,1 C 25,7 km/h (4 Bft) 100,00 %
02.02.2023 12:15 6,2 C 79 % 1017,4 hPa 0,0 mm 9,2 km/h (2 Bft) N 360 0 min 0,000 mm 0,0 UV-I 90 W/m 2,8 C 4,3 C 16,1 km/h (3 Bft) 98,35 %
02.02.2023 12:10 6,2 C 79 % 1017,4 hPa 0,0 mm 12,8 km/h (3 Bft) N-NW 336 0 min 0,000 mm 0,0 UV-I 118 W/m 2,8 C 3,6 C 22,5 km/h (4 Bft) 96,69 %
02.02.2023 12:05 6,1 C 80 % 1017,3 hPa 0,0 mm 7,2 km/h (2 Bft) N-NW 335 5 min 0,000 mm 0,2 UV-I 196 W/m 2,9 C 4,6 C 17,7 km/h (3 Bft) 97,32 %
02.02.2023 12:00 6,1 C 80 % 1017,3 hPa 0,0 mm 11,6 km/h (2 Bft) NW 313 5 min 0,077 mm 0,3 UV-I 211 W/m 2,9 C 3,7 C 19,3 km/h (3 Bft) 97,52 %
_ Min-Zeit 20:20 14:25 08:20 - 16:45 - - - - - - 20:05 00:25 16:45 20:00
Minimum _ 0,9 C 74 % 1007,9 hPa - 0,0 km/h (0 Bft) - - - - - - -1,9 C -0,3 C 0,0 km/h (0 Bft) 80,00 %
_ Max-Zeit 11:20 03:25 18:00 22:35 10:20 - - 16:35 14:00 12:30 12:40 08:35 15:40 08:50 12:20
Maximum _ 7,8 C 93 % 1020,3 hPa 0,2 mm 25,2 km/h
N (4 Bft)
- - 10 min 0,102 mm 0,6 UV-I 360 W/m 6,5 C 6,6 C 48,3 km/h
W-SW (6 Bft)
100,00 %
Durchschnitt _ 5,1 C 85 % 1015,3 hPa #6,4 mm 8,9 km/h (2 Bft) W - #10 min. #0,102 mm 0,0 UV-I 39 W/m 2,8 C 3,4 C 18,2 km/h (3 Bft) 98,40 %
Alle Angaben ohne Gewhr !